Cloud_Cover
100 100 42 76 84 63 92 45 40 22 24 100 98 100 100 100 37 0 4 6 5 41 36 36 100 100 100 100 100 100 100 96 100 100 100 100 100 86 5 0 0 0 70 30 100
100 78 36 80 44 47 68 39 27 18 4 78 100 100 100 100 87 1 59 16 73 18 88 100 100 100 100 100 88 100 100 100 100 100 86 53 10 22 4 3 0 4 97 100 29
100 23 49 19 32 34 63 41 25 31 5 0 5 47 97 100 100 100 96 95 94 97 97 99 100 100 100 100 100 100 100 100 100 100 91 6 6 3 0 4 5 4 31 64 96
25 30 22 100 44 28 27 27 26 26 0 0 0 0 34 31 90 100 100 100 100 100 100 98 61 90 31 99 100 53 40 38 86 45 4 1 5 0 0 0 22 5 5 8 89
58 35 95 100 84 32 26 24 22 12 5 0 0 0 0 4 100 100 76 94 94 99 71 100 100 98 100 100 78 99 57 5 5 35 49 100 10 5 5 1 0 0 2 80 11
100 100 100 100 100 50 35 28 21 2 0 0 0 0 0 0 0 0 26 50 24 75 20 8 2 5 3 5 74 3 100 2 9 23 2 57 6 5 0 4 1 0 0 0 0
64 100 100 90 100 100 67 28 20 0 0 0 0 0 0 0 0 0 0 2 45 20 96 5 4 4 6 50 39 37 7 38 17 95 4 4 0 0 2 5 9 5 0 0 0
100 100 100 96 100 100 100 38 5 0 2 0 0 0 0 0 0 0 0 0 0 2 5 5 4 16 4 4 5 50 25 53 55 3 20 58 47 5 7 3 3 87 100 4 0
100 100 100 100 100 100 100 20 0 0 0 0 0 0 0 0 0 0 0 0 0 0 2 5 5 5 3 2 5 5 46 5 4 5 5 97 100 80 16 26 14 5 86 1 5
51 64 58 100 100 100 68 0 0 0 0 0 0 0 0 0 0 0 0 0 0 0 0 4 4 0 4 4 4 5 50 41 3 12 29 5 85 70 81 79 34 3 5 3 69
24 28 74 81 100 100 21 0 0 4 0 0 0 0 0 0 0 0 0 0 0 0 0 5 5 0 0 3 4 16 5 5 10 3 5 5 5 67 36 6 32 37 6 30 100
18 34 100 100 62 100 43 5 5 0 0 0 0 0 0 0 0 0 0 0 0 0 0 2 5 0 0 4 83 82 7 66 83 27 1 2 3 5 8 88 78 94 71 100 100
39 94 100 40 4 24 5 6 5 5 5 3 0 0 0 0 0 0 0 0 0 0 0 0 2 3 0 5 52 34 71 84 44 5 0 0 4 5 1 4 71 100 100 22 90
68 100 100 88 0 2 5 14 3 5 3 0 0 0 0 0 0 0 0 0 0 0 0 0 1 3 0 2 5 12 88 52 13 49 27 0 0 0 0 5 5 30 97 88 94
66 100 100 18 18 0 0 0 0 0 0 0 0 0 0 0 0 0 0 0 0 0 0 0 11 0 0 0 3 2 6 8 4 10 7 2 0 0 0 5 5 100 5 34 88
82 100 98 36 7 0 0 0 0 0 0 0 0 0 0 0 0 0 0 0 0 0 0 0 0 0 0 0 2 0 1 28 17 27 56 5 0 1 9 5 4 31 56 26 97
100 100 98 4 0 0 0 3 0 0 0 0 0 0 0 0 0 0 0 0 0 0 0 0 0 0 0 0 0 0 0 0 0 1 3 3 0 0 24 5 5 4 86 75 99
99 88 15 9 5 0 0 2 1 0 0 0 0 0 0 0 0 0 0 0 0 0 0 0 0 0 0 0 0 0 2 0 0 4 0 5 0 0 5 11 5 76 40 100 87
5 0 0 2 5 3 1 5 4 0 0 0 0 0 0 0 0 0 0 3 0 0 0 0 0 0 0 0 0 0 0 0 0 5 5 0 0 5 7 3 5 5 0 58 52
20 0 0 0 0 0 0 2 3 4 5 0 0 0 3 4 0 0 0 0 0 0 0 0 0 0 0 0 0 0 0 0 0 0 0 0 0 0 0 0 0 13 6 88 72
0 0 0 0 0 0 0 0 0 0 0 0 0 2 0 3 0 0 0 0 0 0 0 0 0 0 0 0 0 2 0 0 0 0 0 1 0 0 0 0 0 0 99 100 100
0 0 0 0 0 0 0 0 0 0 0 0 0 4 0 0 0 0 0 0 0 0 0 0 0 0 0 0 0 0 0 0 0 0 1 8 4 0 0 0 0 0 65 100 100
0 0 0 0 0 0 0 0 0 0 0 0 0 4 5 0 0 0 0 0 0 0 0 0 0 0 0 0 0 0 4 5 0 0 0 0 0 0 0 0 0 8 100 100 98
0 0 0 0 0 0 0 0 0 0 0 0 0 0 5 5 2 0 0 4 25 1 0 0 0 0 0 0 0 0 2 3 5 0 1 0 0 0 0 0 0 78 100 100 100
0 0 0 0 0 0 0 0 0 0 0 0 0 0 0 0 2 4 1 0 30 10 5 5 4 0 0 0 0 0 0 0 0 2 5 4 4 0 4 1 4 8 100 100 100
0 0 0 0 0 0 0 0 0 0 0 0 0 0 0 0 0 0 0 0 2 42 57 5 30 5 62 2 0 0 0 0 0 2 5 5 2 0 0 3 22 5 96 100 100
0 0 0 0 0 0 0 0 0 0 0 0 0 0 0 0 0 0 0 0 0 0 5 70 11 6 0 28 0 0 2 0 0 0 0 0 0 0 1 30 72 81 97 100 100